Location: Newark
(41.6500°N, 71.4833°W)
Time: 15:40:58
(UTC+00:00)

deb Explorer IX - Visible Passes

Search period start: 19 January 2021 00:00
Search period end: 29 January 2021 00:00
Orbit: 536 x 1104 km, 38.8° (Epoch: 19 January)

Date Brightness Start Highest point End Pass type
(mag) Time Alt. Az. Time Alt. Az. Time Alt. Az.
19 Jan ? 23:25:28 10° SSW 23:30:22 27° SSE 23:31:47 24° SE visible
20 Jan ? 01:11:34 10° WSW 01:13:03 18° WSW 01:13:03 18° WSW visible
20 Jan ? 23:01:35 10° SSW 23:06:42 28° SSE 23:09:35 18° ESE visible
21 Jan ? 00:47:45 10° WSW 00:50:51 30° SW 00:50:51 30° SW visible
21 Jan ? 22:37:42 10° SSW 22:43:01 29° SSE 22:47:21 12° E visible
22 Jan ? 00:23:54 10° WSW 00:28:37 48° SSW 00:28:37 48° SSW visible
22 Jan ? 22:13:47 10° SSW 22:19:19 30° SSE 22:24:12 10° E visible
23 Jan ? 00:00:03 10° WSW 00:05:59 57° S 00:06:21 56° SSE visible
23 Jan ? 01:47:19 10° W 01:47:37 11° W 01:47:37 11° W visible
23 Jan ? 23:36:10 10° WSW 23:42:18 58° S 23:44:04 40° ESE visible
24 Jan ? 01:23:29 10° W 01:25:19 20° W 01:25:19 20° W visible
24 Jan ? 23:12:16 10° WSW 23:18:35 59° S 23:21:45 26° E visible
25 Jan ? 00:59:37 10° W 01:03:01 33° WSW 01:03:01 33° WSW visible
25 Jan ? 22:48:22 10° WSW 22:54:52 60° S 22:59:26 16° E visible
26 Jan ? 00:35:45 10° W 00:40:42 53° SW 00:40:42 53° SW visible
26 Jan ? 22:24:27 10° WSW 22:31:07 61° S 22:36:51 10° E visible
27 Jan ? 00:11:51 10° W 00:18:03 64° S 00:18:24 63° SSE visible
27 Jan ? 01:59:31 10° W 01:59:40 11° W 01:59:40 11° W visible
27 Jan ? 23:47:57 10° W 23:54:20 65° S 23:56:07 43° SE visible
28 Jan ? 01:35:38 10° W 01:37:23 18° W 01:37:23 18° W visible
28 Jan ? 23:24:02 10° W 23:30:35 66° S 23:33:51 26° ESE visible
